Retour au catalogue

COSMOS 2251 DEB

ActifLEO
NORAD 35905·DEBRIS·🇷🇺 Russia

Lancé Jun 16, 1993 depuis Plesetsk Cosmodrome

Loading…

Prochains Passages (prochaines 24 heures)

TLE

VieillissantSource: Space-Track

Époque: Sep 12, 2026, 16:30 UTC

1 35905U 93036AUU 26255.68756154  .00003701  00000-0  26107-3 0  9995
2 35905  74.0337  12.8414 0083406  19.2692 341.1617 15.02558142926933

Suivez COSMOS 2251 DEB en temps réel avec AllMySat

Download on the App Store